Regional Weather Roundup
Issued by NWS Sterling, VA

Home | Current Version | Previous Version | Text Only | Print | Product List | Glossary Off
Versions: 1 2 3 4 5 6 7 8 9 10 11 12 13 14 15 16 17 18 19 20 21 22 23 24 25 26 27 28 29 30 31 32 33 34 35 36 37 38 39 40 41 42 43 44 45 46 47 48 49 50

276
ASUS41 KLWX 050810
RWRLWX

REGIONAL WEATHER ROUNDUP
NATIONAL WEATHER SERVICE BALTIMORE MD/WASHINGTON DC
300 AM EST MON DEC 05 2016

Note: "FAIR" indicates few or no clouds below 12,000 feet
with no significant weather and/or obstructions to visibility.
 TC=TEMPERATURE CELSIUS

 * =Non NWS site. Station does not report precipitation (e.g. rain,
    snow, etc.), thunder, or fog.

DCZ001-MDZ009-015-VAZ040>042-051-053>054-050900-
WASHINGTON METRO

CITY           SKY/WX    TMP DP  RH WIND       PRES   REMARKS
WASHINGTON NAT LGT RAIN  41  39  93 S14       30.05F FOG
DULLES         LGT RAIN  38  37  97 S8        30.01F
ANDREWS AFB    LGT RAIN  39  37  93 S9        30.02F
FT BELVOIR     LGT RAIN  40  38  93 SE6       30.04F
QUANTICO       LGT RAIN  41  38  89 S13       30.06F
COLLEGE PARK*  CLOUDY    37  36  93 S5        30.04S
LEESBURG*      LGT RAIN  39  39 100 MISG      30.01F
MANASSAS*      CLOUDY    39  39 100 S7        30.03S
GAITHERSBURG*  CLOUDY    37  34  87 S8        30.04F

$$

MDZ006>007-011-014-050900-
BALTIMORE METRO

CITY           SKY/WX    TMP DP  RH WIND       PRES   REMARKS
BWI AIRPORT    LGT RAIN  39  39 100 S5        30.03F FOG
MD SCIENCE CTR   N/A     40  37  89 MISG      30.04F
ANNAPOLIS      LGT RAIN  41  38  89 S6        30.04S FOG
FORT MEADE*    CLOUDY    37  36  93 S5        30.06S

$$

MDZ012-015-019>023-050900-
MARYLAND EASTERN SHORE

CITY           SKY/WX    TMP DP  RH WIND       PRES   REMARKS
OCEAN CITY     LGT RAIN  44  41  89 SE6       30.05F
SALISBURY      LGT RAIN  40  40 100 CALM      30.04F FOG
BAY BRIDGE AP* LGT RAIN  41  41 100 S8        30.05S FOG
EASTON*        RAIN      40  38  92 S6        30.08F

$$

MDZ017>025-050900-
SOUTHERN MARYLAND

CITY           SKY/WX    TMP DP  RH WIND       PRES   REMARKS
PATUXENT RIVER RAIN      42  39  89 SW6       30.06R FOG
ST INIGOES     LGT RAIN  44  41  89 S9        30.06R
LEONARDTOWN*   CLOUDY    41  37  87 SW3       30.07R

$$

MDZ003>005-050900-
NORTH CENTRAL MARYLAND

CITY           SKY/WX    TMP DP  RH WIND       PRES   REMARKS
FREDERICK*     CLOUDY    37  37 100 S7        30.02F
HAGERSTOWN APT CLOUDY    38  35  89 S10       29.96S
WESTMINSTER*   LGT RAIN  36  36 100 S8        29.98S

$$

MDZ501>502-050900-
WESTERN MARYLAND

CITY           SKY/WX    TMP DP  RH WIND       PRES   REMARKS
OAKLAND*       CLOUDY    37  37 100 W20G31    29.86R FOG     WCI  27
CUMBERLAND*    NOT AVBL

$$

VAZ025>031-050900-
SHENANDOAH VALLEY

CITY           SKY/WX    TMP DP  RH WIND       PRES   REMARKS
WINCHESTER*    CLOUDY    36  34  93 S5        29.96F
FRONT ROYAL*   CLOUDY    37  37 100 CALM      29.95F
LURAY*         FAIR      39  39 100 SW10      29.96S
NEW MARKET*    CLOUDY    39  36  88 SW7       29.97R
STAUNTON*      CLOUDY    37  36  96 S5        29.98F
WAYNESBORO*    CLOUDY    37  37  97 N3        29.96F

$$

WVZ021-048>050-054>055-050900-
EASTERN WEST VIRGINIA PANHANDLE

CITY           SKY/WX    TMP DP  RH WIND       PRES   REMARKS
MARTINSBURG    CLOUDY    37  36  96 S5        29.96S
PETERSBURG*    CLOUDY    45  37  76 S9G16     29.91F

$$

VAZ036>039-050-050900-
CENTRAL FOOTHILLS

CITY           SKY/WX    TMP DP  RH WIND       PRES   REMARKS
CHARLOTTESVILL CLOUDY    40  37  89 S10       30.00F
CULPEPER*      CLOUDY    40  39  99 CALM      30.03S
ORANGE*          N/A     39  39 100 S3        30.05S
GORDONSVILLE*  CLOUDY    38  38  99 SW6       30.02F
WARRENTON*     CLOUDY    40  36  86 S3        30.02F

$$

VAZ055>057-050900-
NORTH AND CENTRAL PIEDMONT

CITY           SKY/WX    TMP DP  RH WIND       PRES   REMARKS
FREDERICKSBRG* DRIZZLE   40  40 100 S5        30.05F
STAFFORD*      DRIZZLE   38  38 100 SE6       30.08F

$$

NCZ024-NYZ072-PAZ021-071-VAZ022-071-050900-
OTHER REGIONAL OBSERVATIONS

CITY           SKY/WX    TMP DP  RH WIND       PRES   REMARKS
NEW YORK CITY  LGT RAIN  41  29  62 NE5       30.11R
PHILADELPHIA   LGT RAIN  41  36  82 S7        30.06F
PITTSBURGH     CLOUDY    44  40  85 W13G22    29.88R
ROANOKE        CLOUDY    38  37  97 CALM      30.03S
RICHMOND       RAIN      40  39  97 S5        30.06F FOG
RALEIGH        RAIN      43  41  93 CALM      30.03F FOG

$$

ANZ530>537-050900-
MARINE OBSERVATIONS

STATION/POSITION TIME  TEMP    WIND        PRES
                       AIR SEA DIR/SP/G
                 (UTC) (F)     (DEG/KT/KT) (MB)
THOMAS PT LIGHT  0800   41 48  230/ 12/ 13   N/A
BALT KEY BRIDGE  0736   40     180/  7/ 10 1017.5F
COVE POINT       0736   41     240/  7/ 10 1018.2R
LEWISETTA        0736   43 48  220/  7/  8 1017.5R
SOLOMONS ISLAND  0736   42 51  180/  7/  9   N/A
PINEY POINT      0748          230/  9/ 11   N/A

$$





USA.gov is the U.S. government's official web portal to all federal, state and local government web resources and services.